West Bend, WI

1:04 AM CDT on May 28, 2018 (GMT -0500)
West Bend Municipal

Weather History for KETB - October, 2012

Change the Weather History Date:

Wednesday, October 3, 2012

  Actual Average Record
Temperature  
Mean Temperature 56 °F -  
Max Temperature 69 °F 65 °F 85 °F (1971)
Min Temperature 44 °F 44 °F 12 °F (1998)
Degree Days  
Heating Degree Days 8    
Growing Degree Days 6 (Base 50)    
Moisture  
Dew Point 51 °F    
Average Humidity 84    
Maximum Humidity 100    
Minimum Humidity 49    
Precipitation  
Precipitation 0.00 in - - ()
Sea Level Pressure  
Sea Level Pressure 29.96 in    
Wind  
Wind Speed 1 mph (East)    
Max Wind Speed 9 mph    
Max Gust Speed -    
Visibility 6 miles    
Events Fog    
Averages and records for this station are not official NWS values.
T = Trace of Precipitation, MM = Missing Value Source: NWS Daily Summary

Daily Weather History Graph

Daily Weather History Graph

Search for Another Location

Airport or City:

Astronomy

Oct. 03, 2012 Rise Set
Actual Time 6:52 AM CDT 6:29 PM CDT
Civil Twilight 6:24 AM CDT 6:57 PM CDT
Nautical Twilight 5:51 AM CDT 7:30 PM CDT
Astronomical Twilight 5:17 AM CDT 8:04 PM CDT
Moon 8:13 PM CDT (10/3) 10:22 AM CDT (10/3)
Length of Visible Light 12h 33m
Length of Day
11h 36m
Waning Gibbous, 88% of the Moon is Illuminated
Oct 3
Waning Gibbous
Oct 8
Last Quarter
Oct 15
New
Oct 21
First Quarter
Oct 29
Full

Hourly Weather History & Observations

Time (CDT) Temp. Dew Point Humidity Pressure Visibility Wind Dir Wind Speed Gust Speed Precip Events Conditions
12:15 AM 44.6 °F 44.6 °F 100% 29.94 in 0.2 mi Calm Calm - N/A Fog Fog
12:35 AM 46.4 °F 44.6 °F 93% 29.94 in 0.2 mi Calm Calm - N/A Fog Fog
12:55 AM 46.4 °F 46.4 °F 100% 29.95 in 0.2 mi Calm Calm - N/A Fog Fog
1:15 AM 50.0 °F 48.2 °F 94% 29.95 in 0.2 mi Calm Calm - N/A Fog Fog
1:35 AM 50.0 °F 50.0 °F 100% 29.94 in 0.2 mi Calm Calm - N/A Fog Fog
1:55 AM 50.0 °F 50.0 °F 100% 29.94 in 0.2 mi Calm Calm - N/A Fog Fog
2:15 AM 50.0 °F 50.0 °F 100% 29.94 in 0.2 mi Calm Calm - N/A Fog Fog
2:35 AM 50.0 °F 50.0 °F 100% 29.94 in 0.2 mi Calm Calm - N/A Fog Fog
2:55 AM 50.0 °F 50.0 °F 100% 29.94 in 0.2 mi Calm Calm - N/A Fog Fog
3:15 AM 50.0 °F 48.2 °F 94% 29.94 in 0.2 mi Calm Calm - N/A Fog Fog
3:35 AM 48.2 °F 48.2 °F 100% 29.94 in 0.2 mi Calm Calm - N/A Fog Fog
3:55 AM 46.4 °F 46.4 °F 100% 29.94 in 0.2 mi Calm Calm - N/A Fog Fog
4:15 AM 46.4 °F 46.4 °F 100% 29.94 in 0.2 mi Calm Calm - N/A Fog Fog
4:35 AM 46.4 °F 46.4 °F 100% 29.94 in 0.2 mi Calm Calm - N/A Fog Fog
4:55 AM 48.2 °F 48.2 °F 100% 29.95 in 0.2 mi Calm Calm - N/A Fog Fog
5:15 AM 48.2 °F 48.2 °F 100% 29.95 in 0.2 mi Calm Calm - N/A Fog Fog
5:55 AM 48.2 °F 48.2 °F 100% 29.95 in 0.2 mi Calm Calm - N/A Fog Fog
6:15 AM 48.2 °F 48.2 °F 100% 29.96 in 0.2 mi Calm Calm - N/A Fog Fog
6:55 AM 48.2 °F 48.2 °F 100% 29.96 in 0.2 mi Calm Calm - N/A Fog Fog
7:15 AM 50.0 °F 50.0 °F 100% 29.96 in 0.2 mi Calm Calm - N/A Fog Fog
7:35 AM 50.0 °F 50.0 °F 100% 29.97 in 0.8 mi Calm Calm - N/A   Overcast
7:55 AM 50.0 °F 50.0 °F 100% 29.97 in 3.0 mi Calm Calm - N/A   Overcast
8:15 AM 50.0 °F 50.0 °F 100% 29.97 in 5.0 mi Calm Calm - N/A   Overcast
8:35 AM 51.8 °F 51.8 °F 100% 29.97 in 7.0 mi Calm Calm - N/A   Overcast
8:55 AM 53.6 °F 53.6 °F 100% 29.97 in 7.0 mi WNW 3.5 mph - N/A   Overcast
9:15 AM 55.4 °F 55.4 °F 100% 29.97 in 7.0 mi NW 3.5 mph - N/A   Overcast
9:35 AM 55.4 °F 55.4 °F 100% 29.97 in 7.0 mi Calm Calm - N/A   Overcast
9:55 AM 55.4 °F 55.4 °F 100% 29.97 in 10.0 mi Calm Calm - N/A   Overcast
10:15 AM 57.2 °F 57.2 °F 100% 29.98 in 10.0 mi Calm Calm - N/A   Overcast
10:35 AM 59.0 °F 59.0 °F 100% 29.97 in 10.0 mi Calm Calm - N/A   Overcast
10:55 AM 62.6 °F 59.0 °F 88% 29.97 in 10.0 mi NE 4.6 mph - N/A   Mostly Cloudy
11:55 AM 68.0 °F 53.6 °F 60% 29.96 in 10.0 mi NNE 5.8 mph - N/A   Scattered Clouds
12:55 PM 69.8 °F 50.0 °F 49% 29.95 in 10.0 mi East 3.5 mph - N/A   Mostly Cloudy
1:15 PM 69.8 °F 51.8 °F 53% 29.95 in 10.0 mi East 4.6 mph - N/A   Overcast
1:35 PM 69.8 °F 51.8 °F 53% 29.94 in 10.0 mi East 3.5 mph - N/A   Overcast
1:55 PM 68.0 °F 51.8 °F 56% 29.94 in 10.0 mi ESE 9.2 mph - N/A   Overcast
2:35 PM 68.0 °F 51.8 °F 56% 29.94 in 10.0 mi ENE 9.2 mph - N/A   Overcast
2:55 PM 68.0 °F 51.8 °F 56% 29.94 in 10.0 mi ENE 8.1 mph - N/A   Overcast
3:15 PM 68.0 °F 50.0 °F 52% 29.94 in 10.0 mi ENE 8.1 mph - N/A   Overcast
3:35 PM 68.0 °F 50.0 °F 52% 29.94 in 10.0 mi East 8.1 mph - N/A   Overcast
3:55 PM 69.8 °F 51.8 °F 53% 29.94 in 10.0 mi East 9.2 mph - N/A   Overcast
4:15 PM 68.0 °F 51.8 °F 56% 29.95 in 10.0 mi ESE 9.2 mph - N/A   Overcast
4:55 PM 64.4 °F 53.6 °F 68% 29.95 in 10.0 mi East 6.9 mph - N/A   Overcast
5:15 PM 62.6 °F 53.6 °F 72% 29.96 in 10.0 mi SE 6.9 mph - N/A   Mostly Cloudy
5:55 PM 62.6 °F 50.0 °F 63% 29.97 in 10.0 mi SE 5.8 mph - N/A   Overcast
6:15 PM 60.8 °F 48.2 °F 63% 29.97 in 10.0 mi ESE 4.6 mph - N/A   Overcast
6:35 PM 60.8 °F 50.0 °F 68% 29.97 in 10.0 mi Calm Calm - N/A   Overcast
6:55 PM 60.8 °F 50.0 °F 68% 29.97 in 10.0 mi Calm Calm - N/A   Overcast
7:15 PM 59.0 °F 50.0 °F 72% 29.97 in 10.0 mi Calm Calm - N/A   Overcast
7:55 PM 59.0 °F 50.0 °F 72% 29.98 in 10.0 mi Calm Calm - N/A   Overcast
8:35 PM 59.0 °F 50.0 °F 72% 29.98 in 10.0 mi Calm Calm - N/A   Overcast
8:55 PM 57.2 °F 50.0 °F 77% 29.99 in 10.0 mi Calm Calm - N/A   Overcast
9:55 PM 55.4 °F 50.0 °F 82% 29.99 in 10.0 mi Calm Calm - N/A   Overcast
10:15 PM 55.4 °F 50.0 °F 82% 30.00 in 10.0 mi Calm Calm - N/A   Overcast
10:55 PM 55.4 °F 51.8 °F 88% 30.00 in 10.0 mi Calm Calm - N/A   Overcast
11:15 PM 55.4 °F 51.8 °F 88% 30.00 in 10.0 mi Calm Calm - N/A   Overcast
11:35 PM 55.4 °F 51.8 °F 88% 30.00 in 10.0 mi Calm Calm - N/A   Overcast
11:55 PM 55.4 °F 51.8 °F 88% 30.00 in 10.0 mi Calm Calm - N/A   Overcast